Location: *
(45.1961°N, 1.9694°E)
Time: 22:14:41
(UTC+00:00)

SJ 16-02 - Pass Details

Date: 25 August 2019
Orbit: 605 x 618 km, 75.0° (Epoch: 20 September)

Event Time Altitude Azimuth Distance (km) Brightness Sun altitude
Rises 21:55:11 0° 250° (WSW) 2,874 4.9 -28.1°
Reaches altitude 10° 21:58:33 10° 278° (W) 1,977 4.4 -28.4°
Maximum altitude 22:00:42 13° 307° (NW) 1,770 4.5 -28.6°
Drops below altitude 10° 22:02:52 10° 337° (NNW) 1,987 4.9 -28.8°
Sets 22:06:17 0° 4° (N) 2,900 5.6 -29.1°
